Flag for U.S.A. Weather past 2 weeks in Yonkers, New York, U.S.A.

Now
53 °F

Sunny.


Feels Like: 53 °F
Forecast: 40 / 63 °F
Wind: 3 mph from North

Location: Teterboro Airport


UV Index: 5 (Moderate)

Visibility: 10 mi


Pressure: 30.18 "Hg

Humidity: 37%

Dew point: 27 °F

Location of YonkersLocation

Historic Weather in Yonkers

°F

Yonkers temperature yesterday

Maximum temperature yesterday: 58 °F (at 1:51 PM)
Minimum temperature yesterday: 46 °F (at 9:51 PM)
Average temperature yesterday: 52 °F

Past Weeks' High & Low Weather Summary

 TemperatureHumidityPressure
High81 °F (Apr 13, 2:51 PM)93% (Apr 8, 1:51 AM)30.73 "Hg (Apr 8, 1:51 AM)
Low33 °F (Apr 16, 5:51 AM)17% (Apr 6, 5:51 PM)29.39 "Hg (Apr 8, 12:58 PM)
Average54 °F51%30.10 "Hg
* Reported Apr 6 9:51 AM — Apr 21 9:51 AM, Yonkers, Weather by CustomWeather, © 2014

Note: Actual official high and low records may vary slightly from our data, if they occured in-between our weather recording intervals... More about our weather records

Advertising

Historic Weather Conditions — Data for Previous 24 hours

 ConditionsComfort  
Time TempWeatherWind HumidityBarometerVisibility
9:51 AM
Apr 21
53 °FSunny.3 mph37%30.18 "Hg10 mi
8:51 AM50 °FSunny.3 mph39%30.20 "Hg10 mi
7:51 AM46 °FSunny.3 mph56%30.22 "Hg10 mi
6:51 AM40 °FClear.No wind68%30.23 "Hg10 mi
5:51 AM39 °FClear.3 mph67%30.23 "Hg10 mi
4:51 AM40 °FClear.No wind65%30.23 "Hg10 mi
3:51 AM42 °FClear.3 mph57%30.25 "Hg10 mi
2:51 AM42 °FClear.No wind55%30.26 "Hg10 mi
1:51 AM45 °FClear.No wind49%30.27 "Hg10 mi
12:51 AM44 °FClear.No wind53%30.31 "Hg10 mi
11:51 PM
Apr 20
46 °FClear.No wind48%30.33 "Hg10 mi
10:51 PM47 °FClear.No wind46%30.35 "Hg10 mi
9:51 PM46 °FClear.3 mph50%30.37 "Hg10 mi
8:51 PM49 °FClear.7 mph43%30.38 "Hg10 mi
7:51 PM50 °FSunny.10 mph39%30.38 "Hg10 mi
6:51 PM52 °FSunny.8 mph40%30.39 "Hg10 mi
5:51 PM54 °FSunny.8 mph38%30.41 "Hg10 mi
4:51 PM55 °FSunny.15 mph39%30.41 "Hg10 mi
3:51 PM55 °FSunny.12 mph37%30.42 "Hg10 mi
2:51 PM57 °FSunny.12 mph33%30.44 "Hg10 mi
1:51 PM58 °FSunny.16 mph31%30.45 "Hg10 mi
12:51 PM57 °FSunny.8 mph31%30.46 "Hg10 mi
11:51 AM55 °FSunny.8 mph31%30.48 "Hg10 mi
Weather by CustomWeather, © 2014

See weather overview